{"data":{"norad_id":68568,"epoch":"2026-05-24T21:26:11.997888Z","epoch_age_seconds":78061,"freshness":"FRESH","line1":"1 68568U 26070AC  26144.89319442  .00022838  00000+0  68482-3 0  9998","line2":"2 68568  53.1601   8.5003 0001073  79.3471 280.7652 15.34408382  8229","mean_motion":15.34408382,"eccentricity":0.0001073,"inclination_deg":53.1601,"raan_deg":8.5003,"arg_perigee_deg":79.3471,"mean_anomaly_deg":280.7652,"bstar":0.00068482,"rev_number":822,"period_min":93.847245419961,"perigee_km":461.94430776548,"apogee_km":463.4123467347,"semimajor_km":6840.8153272501,"source":"CELESTRAK","updated_at":"2026-05-25T13:38:21.965271Z"}}